ATLAS 5 CENTAUR DEB, 46848

Orbit data source: Space-Track

ATLAS 5 CENTAUR DEB, 46848 is space debris in HEO originally from a launch on Wed, 17 Oct 2018 UTC launched from the Air Force Eastern Test Range (AFETR). Debris objects in space refer to the collection of defunct objects orbiting the Earth. Examples of debris include non-operational satellites, rocket bodies, and fragments generated from explosions, collisions, or faulty payload assembly.

Loading next visibility...
Identifier
46848, 2018-079DD
Orbit
HEO
Country
Flag of USUS
Related business
Flag of USUnited Launch Alliance/Lockheed Martin (US)
Manufacturer
ULA Decatur
Mission
Spacecraft
Bus & Motor
Unknown
Mass
Unknown
Launch date (UTC)
2018-10-17 (7 years ago)
Launch vehicle
Unknown
Launch site
Air Force Eastern Test Range (AFETR)
Object type
Payload
Rocket body
Debris
Shape & HBR
Unknown shape, 1.1 m
Radar Cross Section
Large (>1 m²)

Expand to show TLE details & history
Last TLE update: 1 month ago

TLE from 1 month ago
0 ATLAS 5 CENTAUR DEB
1 46848U 18079DD  25362.60828650 -.00000091  00000-0  00000-0 0  9999
2 46848  13.0807  64.3623 4484160 252.0683  55.1969  1.79119363 33739
Epoch: 2025-12-28T14:35Z
TLE epoch observation values (Epoch: 2025-12-28T14:35:55.953Z)
Latitude
0.00003°
Longitude
108.04128°
Altitude
20,189.934 km
Speed
4.011 km/s
True Right ascension
04h 17m 22s
True Declination
0° 00' 00"
Sunlit
Object was in daylight at epoch
Visualization orbit readout
Latitude
Unknown
Longitude
Unknown
Altitude
Unknown
Speed
Unknown
Apparent Right ascension
Unknown
Apparent Declination
Unknown
Sunlit
N/A
Visualization observer readout
Local Sidereal Time
16:23:31
Azimuth
Unknown
Elevation
Unknown
Doppler factor
Unknown
Orbital elements
Apogee altitude
35,107.447 km
Perigee altitude
9,420.352 km
Semi-major axis
28,642.037 km
Eccentricity
0.44842
Inclination
13.0807°
RAAN
64.3623°
Arg. of periapsis
252.0683°
True anomaly
107.85778°
Mean anomaly
55.1969°
Eccentric anomaly
80.53983°
Mean motion
0.44775 °/min
Orbital period
804.02 mins
BSTAR
0
Loading maneuver chart data...
Computing Atmospheric mass density...

Documentation

Showing up to 5 results
|